Location: Unspecified
(0.0000°N, 0.0000°E)
Time: 20:48:22
(UTC+00:00)

deb Explorer IX - Visible Passes

Search period start: 01 July 2016 00:00
Search period end: 11 July 2016 00:00
Orbit: 550 x 1130 km, 38.8° (Epoch: 30 June)

Date Brightness Start Highest point End Pass type
(mag) Time Alt. Az. Time Alt. Az. Time Alt. Az.
01 Jul ? 03:54:57 10° NNW 03:59:25 22° NE 04:03:24 10° E visible
01 Jul ? 18:24:44 10° W 18:29:55 26° NW 18:35:38 10° NNE visible
02 Jul ? 03:37:14 10° NNW 03:42:09 25° NE 03:46:30 10° E visible
02 Jul ? 05:24:18 10° WNW 05:29:38 46° SW 05:34:13 10° SSE visible
03 Jul ? 03:23:03 24° N 03:24:52 29° NE 03:29:32 10° E visible
03 Jul ? 05:06:56 10° WNW 05:12:20 42° SW 05:16:58 10° SSE visible
04 Jul ? 03:10:01 24° E 03:10:01 24° E 03:12:32 10° E visible
04 Jul ? 04:51:55 22° W 04:55:00 38° SW 04:59:41 10° SSE visible
05 Jul ? 04:37:57 34° SW 04:37:57 34° SW 04:42:23 10° SSE visible
06 Jul ? 04:23:23 19° S 04:23:23 19° S 04:25:04 10° SSE visible
